User: anonymous   Login
Location: Conflandey
(47.7287°N, 6.0456°E)
Time: 12:45:38
(UTC+00:00)
Language:

ATLAS 3B R/B - Orbit

View from above orbital plane
View from above orbital plane
View from above satellite
View from above satellite

Ground track
Ground track

The orbit data is extracted from the following two-line orbital elements,

1 28538U 05004B   22011.12798661 0.00000000  00000-0  00000-0 0    04
2 28538  63.8261  49.7781 0138796 354.3218   5.7662 13.43151450    03
Epoch (UTC): 11 January 2022 03:04:18
Eccentricity: 0.0138796
inclination: 63.8261°
perigee height: 994 km
apogee height: 1201 km
right ascension of ascending node: 49.7781°
argument of perigee: 354.3218°
revolutions per day: 13.43151450
mean anomaly at epoch: 5.7662°
orbit number at epoch: 0

The dashed part of the orbit path shows where the satellite is in the earth's shadow,  

DLR